TimeCST,TemperatureF,Dew PointF,Humidity,Sea Level PressureIn,VisibilityMPH,Wind Direction,Wind SpeedMPH,Gust SpeedMPH,PrecipitationIn,Events,Conditions,WindDirDegrees,DateUTC
12:53 AM,21.9,9.0,58,30.17,10.0,South,4.6,-,N/A,,Overcast,180,2013-03-03 06:53:00
1:53 AM,21.0,8.1,57,30.16,10.0,East,3.5,-,N/A,,Overcast,90,2013-03-03 07:53:00
2:53 AM,21.0,7.0,55,30.15,10.0,ESE,3.5,-,N/A,,Overcast,110,2013-03-03 08:53:00
3:53 AM,19.9,6.1,55,30.14,10.0,East,3.5,-,N/A,,Overcast,80,2013-03-03 09:53:00
4:53 AM,19.9,7.0,57,30.13,10.0,East,4.6,-,N/A,,Mostly Cloudy,100,2013-03-03 10:53:00
5:53 AM,19.9,8.1,60,30.14,10.0,East,5.8,-,N/A,,Overcast,100,2013-03-03 11:53:00
6:53 AM,18.0,8.1,65,30.14,10.0,East,5.8,-,N/A,,Mostly Cloudy,90,2013-03-03 12:53:00
7:53 AM,19.0,8.1,62,30.14,10.0,ESE,6.9,-,N/A,,Overcast,110,2013-03-03 13:53:00
8:53 AM,21.9,9.0,58,30.13,10.0,SE,10.4,-,N/A,,Mostly Cloudy,130,2013-03-03 14:53:00
9:53 AM,25.0,9.0,51,30.12,10.0,ESE,11.5,-,N/A,,Scattered Clouds,120,2013-03-03 15:53:00
10:53 AM,27.0,10.0,49,30.11,10.0,SE,15.0,-,N/A,,Clear,140,2013-03-03 16:53:00
11:53 AM,28.9,10.0,45,30.09,10.0,ESE,13.8,-,N/A,,Clear,120,2013-03-03 17:53:00
12:53 PM,30.9,12.0,46,30.06,10.0,SE,10.4,-,N/A,,Scattered Clouds,130,2013-03-03 18:53:00
1:53 PM,30.9,10.0,42,30.05,10.0,SE,16.1,-,N/A,,Partly Cloudy,130,2013-03-03 19:53:00
2:53 PM,30.9,10.0,42,30.03,10.0,SE,13.8,-,N/A,,Clear,130,2013-03-03 20:53:00
3:53 PM,32.0,10.9,42,30.02,10.0,ESE,12.7,-,N/A,,Clear,120,2013-03-03 21:53:00
5:53 PM,30.0,12.0,47,30.01,10.0,ESE,9.2,-,N/A,,Clear,110,2013-03-03 23:53:00
6:53 PM,28.9,10.9,47,30.02,10.0,East,10.4,-,N/A,,Scattered Clouds,100,2013-03-04 00:53:00
7:53 PM,28.9,10.9,47,30.01,10.0,ESE,10.4,-,N/A,,Overcast,110,2013-03-04 01:53:00
8:53 PM,28.9,12.0,49,30.02,10.0,ESE,9.2,-,N/A,,Overcast,120,2013-03-04 02:53:00
9:53 PM,28.0,10.9,49,30.00,10.0,East,9.2,-,N/A,,Mostly Cloudy,100,2013-03-04 03:53:00
10:53 PM,28.0,12.0,51,30.00,10.0,ESE,10.4,-,N/A,,Overcast,120,2013-03-04 04:53:00
11:53 PM,28.0,10.9,49,30.01,10.0,ESE,11.5,-,N/A,,Overcast,110,2013-03-04 05:53:00